Flag for U.S.A. Weather past 2 weeks in Wilmington, Delaware, U.S.A.

Now
61 °F

Sunny.


Feels Like: 61 °F
Forecast: 50 / 65 °F
Wind: 7 mph from West

Location: New Castle County Airport

Current Time: Oct 24, 2014 at 7:24:31 PM

Latest Report: Oct 24, 2014 at 6:51 PM


Visibility: 10 mi

Pressure: 29.86 "Hg

Humidity: 42%

Dew point: 38 °F

Location of WilmingtonLocation

Historic Weather in Wilmington — Graph

°F

Wilmington temperature yesterday

Maximum temperature yesterday: 58 °F (at 1:51 PM)
Minimum temperature yesterday: 51 °F (at 7:51 AM)
Average temperature yesterday: 54 °F

Past Weeks' High & Low Weather Summary

 TemperatureHumidityPressure
High78 °F (Oct 14, 2:51 PM)97% (Oct 11, 5:51 AM)30.32 "Hg (Oct 11, 5:51 AM)
Low37 °F (Oct 20, 5:51 AM)35% (Oct 19, 4:51 PM)29.61 "Hg (Oct 18, 4:51 AM)
Average59 °F75%29.96 "Hg
* Reported Oct 9 5:51 PM — Oct 24 5:51 PM, Wilmington, Weather by CustomWeather, © 2014

Note: Actual official high and low records may vary slightly from our data, if they occured in-between our weather recording intervals... More about our weather records

Advertising

Wilmington weather history for previous 24 hours

 ConditionsComfort  
Time TempWeatherWind HumidityBarometerVisibility
5:51 PM
Oct 24
64 °FSunny.10 mph41%29.85 "Hg10 mi
4:51 PM68 °FSunny.15 mph42%29.83 "Hg10 mi
3:51 PM67 °FSunny.13 mph42%29.83 "Hg10 mi
2:51 PM67 °FSunny.15 mph44%29.83 "Hg10 mi
1:51 PM68 °FSunny.20 mph44%29.85 "Hg10 mi
12:51 PM67 °FPassing clouds.15 mph47%29.87 "Hg10 mi
11:51 AM65 °FSunny.21 mph47%29.89 "Hg10 mi
10:51 AM63 °FSunny.17 mph52%29.89 "Hg10 mi
9:51 AM61 °FScattered clouds.13 mph58%29.91 "Hg10 mi
8:51 AM58 °FOvercast.10 mph65%29.89 "Hg10 mi
7:51 AM57 °FPassing clouds.15 mph67%29.86 "Hg10 mi
6:51 AM57 °FOvercast.10 mph67%29.88 "Hg10 mi
5:51 AM57 °FOvercast.13 mph67%29.87 "Hg10 mi
4:51 AM57 °FOvercast.10 mph64%29.85 "Hg10 mi
3:51 AM57 °FPassing clouds.10 mph64%29.85 "Hg10 mi
2:51 AM57 °FOvercast.12 mph64%29.85 "Hg10 mi
1:51 AM54 °FOvercast.6 mph72%29.84 "Hg10 mi
12:51 AM53 °FPassing clouds.5 mph72%29.84 "Hg10 mi
11:51 PM
Oct 23
54 °FOvercast.6 mph72%29.85 "Hg10 mi
10:51 PM55 °FPassing clouds.8 mph67%29.86 "Hg10 mi
9:51 PM56 °FOvercast.10 mph65%29.86 "Hg10 mi
8:51 PM55 °FPartly cloudy.15 mph67%29.85 "Hg10 mi
7:51 PM55 °FOvercast.15 mph69%29.84 "Hg10 mi
Weather by CustomWeather, © 2014

See weather overviewHow to use our weather pages